Capitol Logistics 662


SPJC
Jorge Chávez International Airport
Lima, PE
KMIA
Miami International Airport
Miami, US

Route Details

Aircraft Information
Primary: Boeing 767-300BDSF
Backup: Not Available
Route Data
Distance: 2376nm
Sched. Duration: 6h 00m
Avg. Duration: 5h 29m (-70m)
Times Flown: 8
Recm'd Route: XOPLI UG448 IKBIX Y183 PEAKY DVALL CURSO5
Planned Altitude: 34,000ft
Origin Wx: SPJC 191700Z VRB06KT CAVOK 25/18 Q1012 NOSIG RMK PP000
Dest. Wx: KMIA 191653Z 07007KT 10SM FEW043 23/12 A3031 RMK AO2 SLP263 T02280117
Notes:

Financial History
Total Freight: 813,933lbs
Average Load: 101,742lbs/flt
Fuel Used: 503,306lbs
Avg. Fuel Used: 62,913lbs/flt
Fuel Expense: $402,645
Avg. Fuel Expense: $50,331
Avg. Fuel Cost: $0.80/lbs
Total Gross Income: $2,416,916
Pilot Pay: $1,792
Total Expenses: $261,443
Total Revenue: $1,742,149
Average Revenue: $302,114.47